RESURS P2

Last updated on Wed Apr 24 2024 00:02:24 GMT+0000 (Coordinated Universal Time)

1 40360U 14087A 24114.58740854 .00041638 00000+0 59942-3 0 9999 2 40360 97.1522 200.9351 0007736 136.2888 223.8981 15.55901365521034
UTC large
Height (km)
Speed (km/s)
/
Latitude / Longitude
Inclination (degrees)
Orbital Period (minutes)
Azimuth
Elevation
Range (km)
Doppler Factor

Next 0 passes for location: London (51.5072 / 0.1276)

Sorry there are no passes over London.